Location: Krasnoyarskiy Pitomnik
(51.1333°N, 71.6167°E)
Time: 22:03:00
(UTC+00:00)

Altair - Pass Details

Date: 21 April 2024
Orbit: 1501 x 1682 km, 47.2° (Epoch: 19 May)

Event Time Altitude Azimuth Distance (km) Brightness Sun altitude
Rises 21:23:32 0° 286° (WNW) 4,795 9.9 -20.5°
Reaches altitude 10° 21:28:11 10° 267° (W) 3,770 9.2 -20.1°
Enters shadow 21:29:05 12° 262° (W) 3,622 9.1 -20.0°
Maximum altitude 21:33:24 16° 233° (SW) 3,251 - -19.6°
Drops below altitude 10° 21:38:31 10° 199° (SSW) 3,689 - -19.1°
Sets 21:43:02 0° 180° (S) 4,644 - -18.6°
